Regional Weather Roundup
Issued by NWS

Home | Current Version | Previous Version | Text Only | Print | Product List | Glossary On
Versions: 1 2 3 4 5 6 7 8 9 10 11 12 13 14 15 16 17 18 19 20 21 22 23 24 25 26 27 28 29 30 31 32 33 34 35 36 37 38 39 40 41 42 43 44 45 46 47 48 49 50
000
ASUS43 KOAX 251110
RWRNE

WEATHER ROUNDUP FOR NEBRASKA
NATIONAL WEATHER SERVICE OMAHA NE
600 AM CDT MON SEP 25 2017

NOTES: SATELLITE DATA IS BEING USED TO AUGMENT CLOUD COVER ABOVE
       12000 FEET.
       "FAIR" INDICATES FEW OR NO CLOUDS BELOW 12,000 FEET WITH NO
       SIGNIFICANT WEATHER AND/OR OBSTRUCTIONS TO VISIBILITY.


NEZ001>004-019>022-054>056-251200-
NEBRASKA PANHANDLE

CITY           SKY/WX    TMP DP  RH WIND       PRES   REMARKS
SCOTTSBLUFF    CLOUDY    42  40  92 N5        30.12R
ALLIANCE       MOCLDY    42  41  96 N8        30.10S
CHADRON        CLOUDY    44  42  93 NE5       30.12R
GORDON         CLOUDY    44  42  94 NE9       30.10F
KIMBALL        DRIZZLE   42  42 100 N8        30.10S
SIDNEY         CLOUDY    44  42  93 NE15      30.09R
$$

NEZ057>060-069>072-079>082-251200-
SOUTHWEST NEBRASKA

CITY           SKY/WX    TMP DP  RH WIND       PRES   REMARKS
NORTH PLATTE   PTCLDY    48  46  93 N7        30.03S
IMPERIAL       CLOUDY    49  46  90 N15       30.03F
LEXINGTON      CLOUDY    51  50  93 N7        29.99F
MCCOOK         CLOUDY    51  50  96 N12       29.99S
OGALLALA       CLOUDY    50  47  88 N12       30.07S
$$

NEZ005>010-023>029-035>040-094-251200-
NORTH CENTRAL NEBRASKA

CITY           SKY/WX    TMP DP  RH WIND       PRES   REMARKS
VALENTINE      LGT RAIN  48  45  89 N13       30.09F
AINSWORTH      RAIN      47  47 100 N10       30.08R
BROKEN BOW     LGT RAIN  50  50 100 N13       30.02S
O`NEILL        DRIZZLE   49  49 100 N12G23    30.00F
ORD            CLOUDY    51  48  89 N9        30.00R
THEDFORD       DRIZZLE   47  46  95 N9        30.07R
$$

NEZ041-046>049-061>064-073>077-083>087-251200-
SOUTH CENTRAL NEBRASKA

CITY           SKY/WX    TMP DP  RH WIND       PRES   REMARKS
GRAND ISLAND   LGT RAIN  53  53 100 NE10      29.95F
AURORA         TSTM      53  53  99 NE9       29.93F
HASTINGS       CLOUDY    54  52  93 NE9       29.96R
HEBRON         TSTM      58  58  97 NE5       29.93R
HOLDREGE       CLOUDY    51  50  95 N12G21    29.96F
KEARNEY        LGT RAIN  52  51  97 N13       29.98R
YORK           RAIN      54  54 100 NE15      29.95R
$$

NEZ011>018-030>034-042>045-251200-
NORTHEAST NEBRASKA

CITY           SKY/WX    TMP DP  RH WIND       PRES   REMARKS
NORFOLK        RAIN      53  52  96 NW8       29.99R
ALBION         RAIN      53  51  95 NE10      29.94F
BLAIR          FOG       60  60  97 N3        29.93R VSB 1/2
COLUMBUS       LGT RAIN  55  53  93 VRB3      29.98F
FREMONT        CLOUDY    57  56  97 NW12      29.98R
TEKAMAH        CLOUDY    58  56  93 NW10G17   29.95R
WAYNE          LGT RAIN  54  51  91 N6        29.98S
$$

NEZ050>053-065>068-078-088>093-251200-
SOUTHEAST NEBRASKA

CITY           SKY/WX    TMP DP  RH WIND       PRES   REMARKS
LINCOLN        CLOUDY    58  56  93 N13       29.95S
OMAHA EPPLEY   PTCLDY    62  58  86 SE3       29.92F
BEATRICE       CLOUDY    63  62  97 N8        29.94R
FALLS CITY     CLEAR     66  64  93 SE5       29.89F
NEBRASKA CITY  CLOUDY    64  64 100 NE5       29.93S FOG
PLATTSMOUTH    CLOUDY    64  64 100 NE9       29.92F FOG
$$

NEZ044-045-051>053-067-251200-
OMAHA AREA

CITY           SKY/WX    TMP DP  RH WIND       PRES   REMARKS
OMAHA EPPLEY   PTCLDY    62  58  86 SE3       29.92F
BLAIR          FOG       60  60  97 N3        29.93R VSB 1/2
FREMONT        CLOUDY    57  56  97 NW12      29.98R
MILLARD        CLOUDY    64  62  94 CALM      29.93R
OFFUTT AFB     PTCLDY    62  60  95 CALM      29.92S
PLATTSMOUTH    CLOUDY    64  64 100 NE9       29.92F FOG
WAHOO          CLOUDY    57  56  97 NW12      29.97R
$$



USA.gov is the U.S. government's official web portal to all federal, state and local government web resources and services.